Voltar ao catálogo

STARLINK-33700

AtivoComunicaçõesVLEO
NORAD 63484·PAYLOAD·🇺🇸 United States

Lançado Apr 6, 2025 de Cape Canaveral Space Force Station

Loading…

Próximas Passagens (próximas 24 horas)

TLE

AtualizadoSource: CelesTrak SupGP

Época: Sep 14, 2026, 22:42 UTC

1 63484C 25070AA  26257.94631944  .00037006  00000+0  13400-2 0  2573
2 63484  43.0028 270.8655 0001378 258.8513  36.1667 15.27569719    10

Acompanhe STARLINK-33700 em tempo real com AllMySat

Download on the App Store